Regional Weather Roundup
Issued by NWS Upton, NY

Current Version | Previous Version | Text Only | Print | Product List | Glossary On
Versions: 1 2 3 4 5 6 7 8 9 10 11 12 13 14 15 16 17 18 19 20 21 22 23 24 25 26 27 28 29 30 31 32 33 34 35 36 37 38 39 40 41 42 43 44 45 46 47 48 49 50
145
ASUS41 KOKX 201705
RWROKX

Regional Weather Roundup
National Weather Service New York NY
100 PM EDT FRI APR 20 2018

Note: "FAIR" indicates few or no clouds below 12,000 feet with no
significant weather and/or obstructions to visibility.

NYZ071-072-176-178-NJZ106-104-201800-
New York City Metro Area

CITY           SKY/WX    TMP DP  RH WIND       PRES   REMARKS
Central Park   FAIR      48  23  37 VRB6      30.20S
Bronx Bot Gard   N/A     46  25  42 W12       30.19R
Bronx Lehman C   N/A     46  25  42 NW13        N/A
LaGuardia Arpt FAIR      48  24  39 NW16      30.17S
Queens College   N/A     46  25  42 NW14        N/A
Kennedy Intl   FAIR      49  25  39 NW20G26   30.17F
Breezy Point     N/A     46 N/A N/A NW12G21     N/A
Brooklyn Coll    N/A     46  23  39 NW16        N/A
Staten Island    N/A     46  23  39 NW17        N/A
Newark/Liberty FAIR      50  22  33 NW20G31   30.19R
Teterboro      FAIR      48  26  42 NW18G30   30.17S
$$

NYZ177-179-078>081-201800-
Long Island New York

CITY           SKY/WX    TMP DP  RH WIND       PRES   REMARKS
Jones Beach      N/A     45 N/A N/A NW17G24     N/A
Wantagh          N/A     46  27  46 W15         N/A
Hempstead        N/A     46  28  49 NW9       30.19S
Matinecock Pt    N/A     46 N/A N/A NW21        N/A
Farmingdale    FAIR      48  26  42 NW14G24   30.15S
MacArthur/ISP  FAIR      49  25  39 N18G25    30.14R
Stony Brook      N/A     45  28  53 NW10        N/A
Shirley        FAIR      49  27  42 NW15G25   30.14S
Mt Sinai Harb    N/A     46 N/A N/A NW8         N/A
Westhampton    FAIR      48  24  39 NW22G30   30.14R
East Hampton   FAIR      46  26  45 NW12G25   30.10R
Southold         N/A     45  32  61 NW14        N/A
Montauk          N/A     49  30  48 W13G20    30.10S
$$

NYZ052-065-067-201800-
Hudson Valley

CITY           SKY/WX    TMP DP  RH WIND       PRES   REMARKS
White Plains   FAIR      46  23  40 W21G26    30.14R
Larchmont Harb   N/A     43 N/A N/A W16         N/A
Croton On Huds   N/A     46 N/A N/A W16G22      N/A
Somers           N/A     45  27  49 NW12G23     N/A
Brewster         N/A     45  25  45 W14         N/A
Newburgh       MOSUNNY   45  27  49 NW17G25   30.17S
Montgomery     FAIR      45  25  45 N10G23    30.17S
Otisville        N/A     41  25  52 NW13        N/A
Warwick          N/A     43  27  52 NW14G25     N/A
Suffern          N/A     43  27  52 NW15        N/A
Poughkeepsie   FAIR      46  25  43 NW14G20   30.16S
Albany         PTSUNNY   44  23  43 W17G29    30.18S
$$

NJZ001-105-106-008-010-013-015-019>022-104-201800-
New Jersey

CITY           SKY/WX    TMP DP  RH WIND       PRES   REMARKS
Newark/Liberty FAIR      50  22  33 NW20G31   30.19R
Teterboro      FAIR      48  26  42 NW18G30   30.17S
Caldwell       FAIR      48  23  37 N10G18    30.19S
Somerville     FAIR      47  24  40 NW16G24   30.19S
Linden         FAIR      48  23  37 N20G26    30.19S
Perth Amboy      N/A     45 N/A N/A NW16G23     N/A
Sussex         PTSUNNY   42  24  49 W10G20    30.21R
Andover          N/A     43  23  45 N8G17     30.21R
Trenton        FAIR      48  24  39 W16G24    30.21R
Millville      FAIR      51  27  39 NW16G24   30.24S
Atlantic City  FAIR      52  26  36 NW21G28   30.22S
Wrightstown    FAIR      49  24  37 NW18G24   30.19
Toms River     FAIR      50  25  37 W22G28    30.20S
Belmar         FAIR      48  25  40 W16G22    30.20S
$$

PAZ047>061-062-071-201800-
Eastern Pennsylvania

CITY           SKY/WX    TMP DP  RH WIND       PRES   REMARKS
Philadelphia   FAIR      47  22  37 NW12G26   30.25S
Allentown      PTSUNNY   48  25  40 NW14G23   30.24R
Scranton       CLOUDY    39  24  55 NW14G25   30.26S WCI  31
$$

CTZ002-004>006-009-010-012-RIZ004-006-007-MAZ004-011-015-201800-
Southern New England

 In CT

CITY           SKY/WX    TMP DP  RH WIND       PRES   REMARKS
Bradley Intl   FAIR      48  24  39 NW13G21   30.10S
Hartford       FAIR      48  26  42 N13G18    30.12R
Danbury        PTSUNNY   45  24  43 NW13G22   30.15R
Wtrbury/Oxford FAIR      43  25  49 N12G23    30.12S
Norwalk Harbor   N/A     43 N/A N/A N17         N/A
Bridgeport     FAIR      49  25  39 W13G21    30.13R
Meriden        FAIR      47  25  42 NW15G22   30.12S
New Haven      FAIR      48  25  40 N16G22    30.13R
Chester        FAIR      46  23  39 N21G31    30.10R
Groton         FAIR      50  26  39 W17G25    30.07S
Willimantic    FAIR      48  27  44 W17       30.09R

 In RI

CITY           SKY/WX    TMP DP  RH WIND       PRES   REMARKS
Providence     FAIR      50  28  42 N15G32    30.05R
Block Island   FAIR      47  29  49 NW14G22   30.07S
Westerly       FAIR      50  27  40 W10G22    30.07S

In MA

CITY           SKY/WX    TMP DP  RH WIND       PRES   REMARKS
Boston         PTSUNNY   49  27  42 NW21G26   30.02R
Worcester      FAIR      44  24  45 NW20G28   30.03R
Westfield      FAIR      48  26  42 NW20G26   30.10R
Provincetown   FAIR      47  34  60 NW10      30.01R
Nantucket      FAIR      49  31  49 NW17      30.02R
$$

ANZ330-335-338-340-345-350-353-355-201800-
Coastal Marine Observations


STATION/POSITION TIME  SKY/WX   TEMP    WIND        PRES    VSBY  WAVE
                                AIR SEA DIR/SP/G                  HT/PER
                 (UTC)          (F)     (DEG/KT/KT) (MB)    (MI)  (FT/S)
NY Harb Entrance 1650            42 44  310/ 16/ 17 1022.1          3/ 4
20 S Fire Island 1650            42 42  290/ 17/ 21 1021.5          4/ 5
23 SSW Montauk P 1650            41 42  280/ 17/ 21 1019.5          4/ 5
15 E Barnegat Li 1630               44                N/A           4/ 5
Hudson Canyon    1650            41 44  310/ 19/ 25 1021.4          6/ 7
Kings Point      1630            43 44   10/ 15/ 16 1022.6
Execution Rocks  NOT AVBL
Western LI Sound NOT AVBL
Central LI Sound 1645            43     320/ 14/ 17   N/A           2
Robbins Reef     1642            45     310/ 11/ 19 1022.4
$$


>>>>>>>>>>>>>>>>>>>>>>>>>>>> KEY <<<<<<<<<<<<<<<<<<<<<<<<<<<
>                                                          <
>     SKY/WX - Sky Condition/Present Weather               <
>     TMP    - Temperature in Fahrenheit                   <
>     DP     - Dew Point in Fahrenheit                     <
>     RH     - Relative Humidity in Percent                <
>     WIND   - Direction (from) and Speed in MPH           <
>     PRES   - Mean Sea Level Pressure (inches of Hg)      <
>     WCI    - Wind Chill Index                            <
>     VSB    - Visibility in Miles                         <
>     HX     - Heat Index                                  <
>     TC     - Temperature in Celsius                      <
>     VRB    - Varibale Wind Direction                     <
>                                                          <
>>>>>>>>>>>>>>>>>>>>>>>>>>>> KEY <<<<<<<<<<<<<<<<<<<<<<<<<<<




USA.gov is the U.S. government's official web portal to all federal, state and local government web resources and services.